Погода Сырдарья

Погода Сырдарья : погода сейчас, прогноз погоды и архив. Всё, что Вы хотите узнать о погоде Сырдарья!

Поиск расширенной информации на нашем сайте:

Другие новости

Новости СМИ2

Главная страница сайта

Новости сайта

03.07.2017

Напоминаем, что на нашем специализированном сайте Метеоцентр.Азия вы можете получить высокодетализированные автоматические прогнозы погоды по пунктам России, СНГ и мира в авиационном формате (включающие направление и скорость ветра, видимость, явления погоды, количество и форму облачности, нижнюю и верхнюю границу облачности).


Погода Сырдарья - сегодня

Время (UTC), дата Ветер
(°,м/с) 
Видим.   Явления Облачность Т
(°С)
Тd
(°С)
f(%) Тe
(°С)
Pmin
(гПа)
dP
(гПа)
Po
(мм)
O2
(г/м3)
Тmin Tmax R s Состояние
почвы
06 18.02.18 270 (З) 10 км    10/8 1000 м средняя 
[Sc|As op]
-0.2 -3.3 80 1031.3  0.5  748  302  -2.7         
09 18.02.18 340 (С) 10 км    8/4 600 м верхняя 
[Cu med, cong|Ci fib]
+0.9 -3.3 73 1030.1  -1  748  301           
12 18.02.18 290 (З) 10 км    3/0 верхняя 
[Ci fib]
+0.8 -2.5 79 1029.5  -0.6  747  300           
15 18.02.18 270 (З) 10 км    3/0 верхняя 
[Ci fib]
-1.8 -4 85 -1  1029.4  -0.4  747  303    +2       
18 18.02.18 тихо ()   10 км    3/0 верхняя 
[Ci fib]
-4.2 -4.4 99 -4  1029.1  -0.6  746  306    +2       
21 18.02.18 070 (В) 2000 м  дымка  10/4 1000 м верхняя 
[Sc|Ci fib]
-2.8 -3.1 98 -2  1027.1  -1.7  745  304           
00 19.02.18 070 (В) 2000 м  дымка  10/10 1000 м 
[Sc]
-1.8 -2.1 98 -1  1024.8  -2.1  744  302           
03 19.02.18 360 (С) 0500 м  туман  ?/?  
-2.2 -2.5 98 -3  1023.7  0.9             
06 19.02.18 020 (С) 0500 м  туман  ?/?  
-2 -2.9 94 -3  1023.4  -0.3  743  302  -4.8         
09 19.02.18 320 (СЗ) 2000 м  дымка{туман}  10/4 1000 м средняя, верхняя 
[Sc|Ac lent|Ci fib]
+0.7 -2.2 81 -1  1020.6  -2.2  741  298           
12 19.02.18 360 (С) 10 км    10/6 1000 м верхняя 
[Sc|Ci fib]
+0.7 -1.6 85 1020.3  -0.4  741  298           
15 19.02.18 270 (З) 10 км    10/8 1000 м верхняя 
[Sc|Ci fib]
+0.9 -1.4 85 +2  1018.5  -1.6  739  297    +1.2       
18 19.02.18 тихо ()   10 км    10/6 1000 м верхняя 
[Sc|Ci fib]
+0.9 -0.8 88 +1  1016.7  -1.8  738  296    +1.2       
21 19.02.18 290 (З) 10 км    10/4 1000 м средняя, верхняя 
[Sc|Ac lent|Ci fib]
+0.8 -0.6 90 +1  1015.2  -1.5  737  296           
00 20.02.18 320 (СЗ) 10 км    10/4 1000 м средняя, верхняя 
[Sc|Ac lent|Ci fib]
+0.9 -1.4 85 1014.5  -0.6  736  296           
03 20.02.18 020 (С) 10 км    8/3 1000 м средняя, верхняя 
[Sc|Ac lent|Ci fib]
-1.5 -2.1 96 -1  1032.4  0.8             
06 20.02.18 140 (ЮВ) 10 км    3/0 средняя 
[Ac lent]
+4.5 -4.8 51 +5  1022.9  -0.1  743  295  -5         
09 20.02.18 190 (Ю) 10 км    10/10 1000 м 
[Sc]
+12.3 +2.1 50 +12  1011.3  0.6  735  283           
12 20.02.18 200 (Ю) 10 км    10/10 1000 м 
[Sc]
+6.5 +1.8 72 +6  1015.9  3.8  738  290           
15 20.02.18 290 (З) 10 км    10/10 1000 м 
[Sc]
+3.5 +0.9 83 +3  1019.1  2.7  740  294    +13.1       
18 20.02.18 тихо ()   10 км    8/3 1000 м средняя, верхняя 
[Sc|Ac lent|Ci fib]
-3.8 -5.3 89 -4  1038.3  -0.2  753  308    -1.4     
21 20.02.18 050 (СВ) 10 км  {ливн. осадки}  10/10 600 м кучево-дожд. 
[Cb cap|Ns]
+3.8 +3.3 97 +5  1023.2  1.8  743  295           
00 21.02.18 050 (СВ) 10 км  {ливн. осадки}  10/6 1000 м средняя, верхняя 
[Sc|Ac lent|Ci fib]
+3.4 +2.7 95 +3  1024.4  1.1  744  296    -0.3       
03 21.02.18 070 (В) 10 км    8/4 1000 м средняя, верхняя 
[Sc|Ac lent|Ci fib]
+3.7 +1.9 88 +3  1025.8  3.6             
06 21.02.18 050 (СВ) 10 км    10/6 1000 м средняя, верхняя 
[Sc|Ac lent|Ci fib]
+6.6 +2.7 76 +6  1025.9  0.5  745  293  +2.8       
Время (UTC), дата Ветер
(°,м/с) 
Видим.   Явления Облачность Т
(°С)
Тd
(°С)
f(%) Тe
(°С)
Pmin
(гПа)
dP
(гПа)
Po
(мм)
O2
(г/м3)
Тmin Tmax R s Состояние
почвы

Для получения пояснительной информации подведите курсор к названию столбца.

ПОГОДА Сырдарья - архив

Всё, что Вы хотите узнать о погоде Сырдарья - удобно и подробно!

Выберите нужную дату (начиная с 1 января 2015* года) и нажмите кнопку "Найти".
Будут отображены архивные сводки погоды по пункту Сырдарья, начиная с указанной даты.


Отображать данные в формате CSV (для использования в таблицах Excel)


Внимание! Наш архив погоды предназначен исключительно для личного некоммерческого использования в познавательных целях. Если Вам необходимы официальные справки о состоянии погоды (для производственных, юридических, коммерческих и т.п. целей), обращайтесь в органы Росгидромета.

*Примечание: данная дата относится к архиву по метеостанциям СССР (Россия, СНГ, Балтия).
Архив по метеостанциям Зарубежной Европы и Азии (кроме Китая) хранится 10 дней, по другим регионам земного шара (Китай, Африка, Америка, Австралия, Океания) - 1 день.

Сырдарья - район местоположения метеостанции


Название, широта, долгота, высота метеостанции:
Сырдарья 40.8°ш. 68.7°д. 264 м над ур. моря [Узбекистан]

Дополнительная информация

В oтличие oт бoльшинства пoгoдных сайтoв мы публикуем пoдрoбную метеoинфoрмацию в детальнoм прoфессиoнальнoм фoрмате.

Характеристики температуры и влажнoсти вoздуха измеряются на высoте 2 м в тени вдали oт зданий и деревьев.
Скoрoсть ветра измеряется на высoте 10 м (на урoвне рoста челoвека скoрoсть ветра ниже в 1.5-2 раза). Если метеoстанция нахoдится в гoрoде или в лесу, тo скoрoсть ветра занижена на 2-4 м/с пo сравнению с oткрытым местoм. Скoрoсть ветра над акватoриями крупных рек и oзёр, а также на вершинах хoлмoв на 2-5 м/с выше, чем в oбычных услoвиях.
Атмoсфернoе давление в разных тoчках местнoсти мoжет значительнo oтличаться oт давления на метеoстанции, в зависимoсти oт услoвий рельефа (при пoдъёме на 10 м давление пoнижается примернo на 1 мм рт.ст.).